[[[{"header":{"parameterUnit":"kt","parameterCategory":2,"dx":1,"dy":1,"la1":30.253999710083008,"la2":30.299108505249023,"lo1":-89.0895004272461,"lo2":-89.04439544677734,"nx":28,"ny":28,"refTime":"2022-09-19T21:00:00:Z","depth":0,"parameterNumber":1,"parameterNumberName":"U-component_of_WINDS"},"data":[4.8904,4.9033,4.905,4.9205,4.9247,4.9354,4.9398,4.9457,4.9508,4.9638,4.9716,4.9746,4.9803,4.9899,4.9984,4.9995,5.0028,5.006,5.0067,4.9909,4.9888,4.9868,4.9837,5.0068,5.0068,5.0227,5.0228,5.0229,4.8784,4.8827,4.8915,4.9011,4.9086,4.9065,4.914,4.9203,4.93,4.9365,4.9442,4.9558,4.9652,4.9699,4.9791,4.985,4.9844,4.9873,4.9867,4.9875,4.9708,4.9675,4.9876,4.9876,4.9876,4.9876,4.9876,4.9876,4.8569,4.8646,4.8715,4.881,4.8863,4.8928,4.9004,4.904,4.9125,4.9224,4.9229,4.9339,4.9406,4.9526,4.9571,4.9656,4.9626,4.9663,4.9671,4.9679,4.9684,4.9447,4.9673,4.9673,4.9672,4.9672,4.9672,0,4.8416,4.8425,4.8511,4.8602,4.8672,4.8744,4.8813,4.8861,4.8886,4.8956,4.9057,4.9119,4.924,4.9336,4.9427,4.9466,4.9449,4.9451,4.9476,4.9472,4.9457,4.9462,4.9184,4.9443,4.9441,4.944,4.9439,4.9438,4.8196,4.8286,4.8366,4.8424,4.8466,4.8559,4.8618,4.8634,4.8695,4.8782,4.8849,4.8947,4.9026,4.9186,4.9225,4.9316,4.9307,4.9404,4.9321,4.9315,4.9304,4.9297,4.9304,4.9418,4.9421,4.9423,4.9425,0,4.807,4.8099,4.8242,4.8314,4.8334,4.8426,4.8486,4.8564,4.8591,4.8701,4.8728,4.8768,4.8868,4.8892,4.9012,4.9021,4.9169,4.9162,4.9145,4.9143,4.9229,4.9219,4.9512,4.9549,4.9314,4.9317,4.9319,0,4.7892,4.8009,4.8043,4.8126,4.8255,4.8268,4.8396,4.8431,4.8489,4.8576,4.8563,4.8644,4.8663,4.8749,4.8763,4.8889,4.8913,4.8926,4.8927,4.8925,4.8922,4.8954,4.8941,4.8933,4.8931,4.893,4.8929,0,4.7688,4.7845,4.7979,4.8019,4.8106,4.8169,4.8208,4.8274,4.8332,4.8411,4.8447,4.8539,4.8588,4.8659,4.8675,4.8618,4.8832,4.8756,4.8845,4.8844,4.8888,4.8884,4.9141,4.8927,4.8926,4.8926,4.8925,0,4.7546,4.7627,4.7819,4.789,4.793,4.8019,4.8109,4.8191,4.8262,4.8276,4.8338,4.8331,4.8446,4.8368,4.8526,4.8445,4.8494,4.8518,4.8525,4.8533,4.8444,4.858,4.8826,4.885,4.8545,4.8542,4.8539,0,4.7303,4.7504,4.7516,4.7698,4.7793,4.7769,4.7868,4.7931,4.7959,4.8043,4.8074,4.817,4.8118,4.8151,4.8226,4.826,4.8366,4.8248,4.8365,4.8369,4.8343,4.857,4.8598,4.877,4.8499,4.8503,4.8506,0,4.7117,4.7223,4.7255,4.73,4.7386,4.7467,4.7582,4.768,4.7735,4.7809,4.7903,4.8042,4.8006,4.8062,4.8066,4.8143,4.8295,4.8094,4.8096,4.8126,4.8483,4.8508,4.8537,4.828,4.8285,4.8289,4.8475,0,4.689,4.6995,4.7084,4.7185,4.7252,4.7368,4.7394,4.746,4.7456,4.7482,4.7623,4.7682,4.7782,4.7823,4.7821,4.7991,4.7966,4.7927,4.785,4.8001,4.8062,4.8088,4.7756,4.7754,4.7752,4.7751,0,0,4.6648,4.6799,4.6808,4.692,4.6976,4.6949,4.707,4.7122,4.7227,4.7266,4.7224,4.7427,4.7477,4.7645,4.7694,4.7736,4.7768,4.7715,4.793,4.795,4.7968,4.8033,4.806,4.7748,4.7747,4.7746,4.7746,0,4.6569,4.6622,4.6743,4.6797,4.6877,4.6899,4.6928,4.7003,4.7025,4.7165,4.7139,4.7227,4.739,4.7445,4.7494,4.7696,4.767,4.7725,4.7824,4.7911,4.7933,4.7953,4.8022,4.8047,4.7742,4.7742,4.7742,0,4.6388,4.6443,4.6504,4.6633,4.6685,4.6785,4.671,4.682,4.6894,4.6858,4.6997,4.7033,4.7109,4.7267,4.7339,4.7302,4.7579,4.7498,4.751,4.7517,4.7603,4.763,4.7653,4.7339,4.7338,4.7336,0,0,4.6316,4.6414,4.6477,4.6617,4.6652,4.6686,4.6743,4.6744,4.6814,4.6841,4.6887,4.6955,4.7049,4.7111,4.7201,4.7372,4.7387,4.7447,4.7466,4.7482,4.7497,4.7587,4.7614,4.7331,4.7331,4.733,0,0,4.6281,4.6359,4.6343,4.6509,4.6576,4.6647,4.6731,4.6713,4.6797,4.6786,4.6793,4.6812,4.696,4.6997,4.6917,4.7174,4.7098,4.7117,4.7144,4.7168,4.7187,4.7173,4.6848,0,0,0,0,0,4.6213,4.635,4.6334,4.6366,4.6528,4.6656,4.6677,4.6686,4.6631,4.6697,4.6732,4.6702,4.6955,4.6885,4.6916,4.7003,4.7257,4.727,4.7283,4.7357,4.7382,4.7404,0,0,0,0,0,0,4.6225,4.6264,4.633,4.6407,4.6443,4.6651,4.656,4.6566,4.6624,4.6616,4.6696,4.6705,4.6715,4.6869,4.6897,4.698,4.6839,4.7262,4.7273,4.7283,4.7366,4.7386,4.7404,0,0,0,0,0,4.6235,4.6266,4.6524,4.6405,4.6437,4.6482,4.6555,4.6559,4.6604,4.6659,4.6666,4.6606,4.6717,4.6741,4.6886,4.6967,4.6819,4.683,4.7269,4.7278,4.7286,4.7376,0,0,0,0,0,0,4.6242,4.6271,4.653,4.654,4.6354,4.647,4.6489,4.6553,4.6643,4.6652,4.6568,4.656,4.672,4.6738,4.6757,4.6962,4.6804,4.6814,4.6821,4.7276,4.7283,4.7289,0,0,0,0,0,0,4.6254,4.628,4.6535,4.647,4.6473,4.646,4.6476,4.6601,4.6644,4.6547,4.6543,4.6563,4.6692,4.6737,4.6751,4.6946,4.6792,4.6802,4.6809,4.6813,4.7282,4.7287,0,0,0,0,0,0,4.6265,4.6287,4.6468,4.647,4.6472,4.6584,4.657,4.6735,4.6589,4.6543,4.6576,4.657,4.6692,4.6706,4.6748,4.6937,4.6944,4.6792,4.6799,4.6804,4.6807,0,0,0,0,0,0,0,4.6274,4.6126,4.6471,4.6469,4.6471,4.6632,4.6635,4.6638,4.6588,4.6582,4.6577,4.6572,4.6734,4.6745,4.6756,4.6929,0,0,4.6791,4.6796,0,0,0,0,0,0,0,0,4.6117,4.6124,4.6472,4.6474,4.6476,4.6633,4.6635,4.6637,4.6587,4.6582,4.6578,4.6574,4.6737,4.6746,4.6755,0,0,0,0,0,0,0,0,0,0,0,0,0,0,0,4.6472,4.6474,0,4.6633,4.6635,4.6637,4.6586,4.6583,4.6579,4.6576,4.674,4.6747,4.6754,0,0,0,0,0,0,0,0,0,0,0,0,0,0,0,0,0,0,0,0,0,0,0,0,0,0,0,0,0,0,0,0,0,0,0,0,0,0,0,0,0,0,0,0,0,0,0,0,0,0,0,0,0,0,0,0,0,0,0,0,0,0,0,0,0,0,0,0,0]}],[{"header":{"parameterUnit":"kt","parameterCategory":2,"dx":1,"dy":1,"la1":30.253999710083008,"la2":30.299108505249023,"lo1":-89.0895004272461,"lo2":-89.04439544677734,"nx":28,"ny":28,"refTime":"2022-09-19T21:00:00:Z","depth":0,"parameterNumber":2,"parameterNumberName":"V-component_of_WINDS"},"data":[0.6308,0.6289,0.6243,0.62,0.6152,0.6113,0.6085,0.6043,0.5998,0.5945,0.5907,0.5858,0.5793,0.5734,0.5689,0.5668,0.5651,0.5677,0.5647,0.5575,0.5562,0.5549,0.5551,0.5674,0.5675,0.5728,0.5729,0.5729,0.6256,0.6208,0.6173,0.6107,0.6075,0.6023,0.5966,0.5942,0.5909,0.5854,0.5814,0.5763,0.5717,0.5642,0.5589,0.5577,0.5548,0.5566,0.5565,0.5555,0.5477,0.5479,0.559,0.559,0.559,0.559,0.5589,0.5589,0.6148,0.6139,0.6073,0.6033,0.5988,0.5944,0.5927,0.5868,0.5831,0.5772,0.5725,0.5686,0.562,0.5534,0.5494,0.5461,0.5433,0.5437,0.5437,0.5439,0.5447,0.5373,0.545,0.5449,0.5449,0.5448,0.5448,0,0.6055,0.6018,0.5981,0.593,0.5899,0.5855,0.5807,0.5795,0.5699,0.5673,0.5631,0.5599,0.5534,0.5488,0.5429,0.5385,0.5326,0.5316,0.5318,0.534,0.5367,0.535,0.5222,0.5314,0.5312,0.5311,0.5311,0.531,0.5942,0.5937,0.5846,0.5827,0.5789,0.5758,0.573,0.5646,0.562,0.5548,0.5543,0.5496,0.5455,0.5394,0.5323,0.5275,0.5245,0.5285,0.5238,0.5259,0.5243,0.5244,0.5242,0.5296,0.5298,0.5299,0.53,0,0.5882,0.5808,0.5786,0.5696,0.5673,0.5672,0.5594,0.5581,0.5525,0.5499,0.5488,0.54,0.5359,0.5282,0.522,0.5181,0.5174,0.5147,0.5195,0.5185,0.5211,0.5209,0.5313,0.5321,0.5194,0.5195,0.5196,0,0.5755,0.5753,0.5642,0.5633,0.5627,0.5542,0.5538,0.5489,0.5432,0.5411,0.5333,0.5314,0.5218,0.5188,0.513,0.5111,0.51,0.5067,0.5052,0.5074,0.5078,0.5057,0.5051,0.5019,0.5019,0.5018,0.5018,0,0.5668,0.5607,0.5592,0.5566,0.547,0.5465,0.5425,0.5361,0.5335,0.5288,0.5269,0.522,0.5193,0.5156,0.5082,0.5053,0.5057,0.5002,0.5024,0.5026,0.5029,0.503,0.5142,0.5017,0.5017,0.5017,0.5017,0,0.5554,0.551,0.5501,0.5419,0.5406,0.5397,0.5343,0.5318,0.5256,0.5219,0.5181,0.512,0.5099,0.5048,0.5016,0.4999,0.4976,0.4944,0.4944,0.4936,0.4882,0.4954,0.507,0.5078,0.493,0.4929,0.4929,0,0.5474,0.5446,0.5373,0.5367,0.5343,0.5256,0.5244,0.5192,0.5142,0.5113,0.5057,0.5025,0.4971,0.4951,0.4945,0.4885,0.4908,0.488,0.4837,0.4836,0.4854,0.496,0.4997,0.5054,0.4918,0.4919,0.492,0,0.5402,0.5287,0.5292,0.5257,0.5177,0.5157,0.5144,0.5094,0.5078,0.503,0.5015,0.497,0.4926,0.4894,0.4839,0.4837,0.489,0.4791,0.4788,0.481,0.4908,0.4941,0.4951,0.4853,0.4854,0.4855,0.4912,0,0.5243,0.5221,0.5229,0.5159,0.5132,0.5125,0.5043,0.5025,0.4974,0.4922,0.49,0.4838,0.4788,0.4779,0.4731,0.4753,0.4737,0.4692,0.4637,0.4708,0.4724,0.4731,0.4619,0.4617,0.4615,0.4613,0,0,0.5184,0.515,0.5071,0.5056,0.5028,0.4939,0.4937,0.49,0.4826,0.4808,0.4777,0.4705,0.4656,0.4638,0.4654,0.4635,0.463,0.4609,0.4675,0.4683,0.4689,0.4708,0.4717,0.461,0.461,0.4609,0.4608,0,0.5109,0.5063,0.5064,0.5021,0.4956,0.49,0.49,0.482,0.4786,0.4765,0.4691,0.4668,0.4615,0.4572,0.4543,0.4609,0.4554,0.46,0.4663,0.466,0.467,0.4678,0.47,0.4709,0.4604,0.4604,0.4605,0,0.5023,0.4963,0.4956,0.4889,0.4846,0.4824,0.4746,0.4728,0.471,0.4613,0.4594,0.455,0.4487,0.4481,0.4476,0.4447,0.449,0.4463,0.4472,0.4469,0.4463,0.4475,0.4486,0.4348,0.4347,0.4347,0,0,0.4969,0.4948,0.4858,0.4867,0.4845,0.4763,0.4744,0.4691,0.4638,0.4616,0.4558,0.4507,0.4474,0.4454,0.4419,0.4426,0.4405,0.4435,0.4447,0.4457,0.4461,0.4457,0.4469,0.4345,0.4345,0.4345,0,0,0.4943,0.4839,0.4799,0.4799,0.4751,0.4663,0.4671,0.4619,0.458,0.4571,0.4482,0.4465,0.4459,0.4418,0.4399,0.4398,0.4345,0.4348,0.4425,0.4439,0.4451,0.446,0.4311,0,0,0,0,0,0.4825,0.4852,0.4816,0.4804,0.4721,0.4683,0.4672,0.4599,0.4563,0.457,0.4513,0.4456,0.4389,0.437,0.4359,0.4381,0.4318,0.4322,0.4327,0.4427,0.4443,0.4456,0,0,0,0,0,0,0.4819,0.4805,0.4815,0.473,0.471,0.4681,0.4603,0.4584,0.456,0.4549,0.4469,0.4453,0.439,0.4371,0.4362,0.4384,0.4313,0.4319,0.4324,0.4327,0.4432,0.4445,0.4456,0,0,0,0,0,0.4815,0.4803,0.4689,0.4729,0.4712,0.4622,0.4602,0.4585,0.4565,0.4476,0.4459,0.4512,0.4393,0.4381,0.4365,0.439,0.4319,0.4316,0.4322,0.4325,0.4328,0.4439,0,0,0,0,0,0,0.4811,0.4787,0.4683,0.4676,0.4714,0.4622,0.4605,0.4586,0.4492,0.4475,0.4516,0.4508,0.4395,0.4385,0.4376,0.4396,0.4323,0.432,0.4318,0.4325,0.4327,0.4329,0,0,0,0,0,0,0.4793,0.4782,0.4679,0.4664,0.4654,0.4623,0.4608,0.4584,0.4492,0.4536,0.4527,0.4514,0.4409,0.4389,0.4381,0.4348,0.4327,0.4324,0.4322,0.432,0.4327,0.4329,0,0,0,0,0,0,0.4787,0.4777,0.4666,0.4658,0.4648,0.4554,0.46,0.4519,0.448,0.4542,0.4474,0.4471,0.4414,0.4405,0.4385,0.4355,0.435,0.4326,0.4325,0.4323,0.4322,0,0,0,0,0,0,0,0.4782,0.4867,0.4731,0.4652,0.4644,0.4602,0.46,0.4598,0.4479,0.4477,0.4475,0.4473,0.4343,0.434,0.4337,0.4361,0,0,0.4327,0.4325,0,0,0,0,0,0,0,0,0.4869,0.4867,0.4731,0.4729,0.4727,0.4602,0.46,0.4598,0.4479,0.4477,0.4475,0.4473,0.4342,0.434,0.4337,0,0,0,0,0,0,0,0,0,0,0,0,0,0,0,0.473,0.4729,0,0.4602,0.46,0.4599,0.4478,0.4477,0.4475,0.4474,0.4341,0.4339,0.4337,0,0,0,0,0,0,0,0,0,0,0,0,0,0,0,0,0,0,0,0,0,0,0,0,0,0,0,0,0,0,0,0,0,0,0,0,0,0,0,0,0,0,0,0,0,0,0,0,0,0,0,0,0,0,0,0,0,0,0,0,0,0,0,0,0,0,0,0,0]}]]]